Location: Unspecified
(0.0000°N, 0.0000°E)
Time: 19:08:39
(UTC+00:00)

COSMOS 2401 - Pass Details

Date: 27 February 2021
Orbit: 1467 x 1500 km, 82.5° (Epoch: 12 April)

Event Time Altitude Azimuth Distance (km) Brightness Sun altitude
Rises 21:01:42 0° 206° (SSW) 4,578 10.4 -41.8°
Reaches altitude 10° 21:05:01 10° 216° (SW) 3,597 9.8 -42.6°
Maximum altitude 21:12:10 30° 273° (W) 2,401 8.8 -44.3°
Drops below altitude 10° 21:19:23 10° 330° (NNW) 3,600 9.5 -46.1°
Sets 21:22:45 0° 341° (NNW) 4,581 10.1 -46.9°
